Wind_Speed
25 25 26 28 28 28 27 28 28 27 27 25 26 25 24 22 22 21 22 22 23 22 22 23 23 23 23 23 23 22 22 22 22 21 21 22 22 22 21 22 22 21 21 22
26 26 27 27 27 28 28 28 29 29 28 28 28 26 25 24 23 23 23 23 24 23 23 23 24 23 24 24 24 23 23 23 23 23 23 23 23 23 23 23 23 22 22 23
27 27 27 27 26 27 28 29 29 29 28 28 28 27 26 25 25 25 25 25 24 24 24 24 23 24 24 24 24 24 24 24 24 24 24 24 24 24 24 24 24 24 23 22
27 27 29 27 26 26 28 28 29 29 28 29 30 28 28 27 27 27 26 25 25 25 24 24 25 25 25 25 25 25 25 25 25 25 25 25 25 25 25 25 24 24 23 23
26 27 28 27 26 26 27 28 28 29 29 29 29 30 30 29 29 28 27 26 26 25 24 25 24 24 25 25 25 25 25 25 26 26 26 26 26 26 26 26 25 25 24 24
25 26 28 27 27 27 28 29 28 28 29 29 29 30 30 30 30 29 28 27 28 27 26 26 26 26 27 26 26 26 25 25 26 26 26 26 26 26 26 26 26 25 25 24
26 27 28 27 26 27 29 29 29 29 30 30 30 29 30 30 29 29 29 28 29 28 28 27 26 27 27 26 26 27 27 27 26 26 26 26 26 26 26 25 25 25 25 25
27 28 28 28 28 28 29 28 28 29 30 31 31 31 30 30 30 30 29 29 30 30 28 27 27 27 27 27 26 26 26 26 25 25 25 25 25 25 25 25 25 25 25 25
27 27 28 29 28 28 29 29 29 29 29 30 31 31 31 31 29 30 30 30 29 29 28 28 27 27 26 26 27 27 26 26 26 25 24 24 25 25 26 25 25 25 25 25
27 27 28 28 28 28 28 28 29 28 27 28 29 30 31 31 31 31 30 30 30 29 28 28 27 27 27 27 27 27 27 27 27 26 25 25 26 26 26 26 26 26 26 26
29 28 28 28 28 28 28 28 27 26 27 27 27 28 28 30 31 30 30 29 29 29 29 29 28 27 27 27 27 27 26 26 26 25 25 25 25 25 26 27 27 26 26 26
29 28 28 27 27 27 28 27 26 26 26 26 27 28 28 29 30 30 30 29 28 29 29 29 28 28 27 27 27 26 26 26 25 25 25 26 25 26 26 26 27 27 26 26
28 28 27 27 27 27 27 27 27 27 27 26 27 28 28 28 28 28 29 29 28 27 28 28 28 28 28 28 27 26 27 26 26 25 25 26 26 26 27 27 27 27 27 26
26 26 26 26 26 26 26 27 26 26 27 27 27 28 28 28 28 27 27 28 28 27 27 27 28 28 28 28 27 27 27 27 26 26 26 27 27 27 27 26 25 25 26 26
25 25 26 26 26 26 26 26 25 25 26 26 27 27 27 27 27 27 27 27 27 27 27 27 27 28 28 28 27 27 27 27 27 27 27 28 28 27 26 25 24 24 25 25
24 25 25 25 24 24 24 25 24 24 25 26 26 27 27 27 27 27 26 26 26 26 27 27 27 27 27 27 27 27 27 27 27 27 26 26 26 26 26 25 25 24 24 24
22 23 24 24 24 24 24 23 23 23 24 24 25 25 26 26 26 26 26 26 26 26 26 27 27 27 27 27 26 26 26 26 26 27 27 26 25 25 25 26 26 25 24 24
22 23 23 24 24 23 23 22 21 22 22 22 23 23 24 23 24 25 24 24 24 25 24 24 25 26 26 26 26 25 25 25 26 26 25 25 25 24 25 25 26 25 24 23
20 21 21 21 21 21 22 21 19 20 21 21 22 22 22 22 22 23 23 22 23 23 23 22 22 23 24 25 25 25 25 25 25 25 25 25 24 24 24 23 23 24 23 23
20 20 19 19 19 20 20 19 19 20 20 20 20 20 20 20 21 21 21 21 21 22 22 22 22 22 22 22 23 24 24 24 23 23 23 23 23 23 23 23 23 23 23 23
19 19 19 18 19 19 19 20 20 20 20 19 19 20 20 20 21 21 21 21 21 22 22 22 22 21 21 21 21 21 21 21 21 21 21 22 22 23 23 24 24 24 23 23
16 17 18 18 18 18 19 20 19 19 18 18 19 19 19 20 20 19 19 20 21 22 22 21 21 20 20 20 20 20 20 20 20 20 21 21 21 22 23 23 23 24 24 24
14 15 16 16 16 16 17 17 17 16 17 17 17 17 17 17 17 17 18 18 19 19 20 20 20 19 19 19 20 20 20 20 20 20 20 21 21 21 22 22 23 23 24 24
14 15 15 16 15 15 15 16 17 17 18 18 18 17 17 17 17 17 17 17 17 18 18 18 18 18 19 19 19 19 19 19 19 20 20 21 21 22 22 23 23 23 24 24
14 14 15 15 15 14 15 15 16 17 18 17 17 17 17 17 16 16 16 16 17 17 17 17 17 17 18 18 19 19 19 19 20 20 20 20 20 21 21 22 22 23 23 23
13 13 13 13 14 14 14 15 15 16 16 16 17 17 17 16 16 16 15 16 16 16 16 16 16 16 17 18 19 19 19 19 19 19 19 19 20 20 21 21 21 21 21 21
13 13 13 13 14 14 14 14 15 14 14 15 16 16 16 16 15 16 15 15 15 15 15 16 16 16 17 17 18 18 18 18 18 19 19 19 19 19 19 19 19 20 20 19
Wind_Direction
242 241 240 241 242 242 244 246 247 250 253 255 259 261 265 266 268 267 270 271 271 271 272 269 266 267 267 268 268 270 271 272 272 272 273 274 274 274 275 275 275 276 277 278
242 243 243 244 245 247 247 247 249 250 252 254 256 261 264 265 266 269 271 272 273 270 268 267 265 264 265 266 267 268 270 272 272 272 272 272 273 274 275 276 276 277 278 278
243 244 245 246 247 247 248 249 251 253 254 254 256 257 261 264 267 269 271 271 272 269 266 265 263 264 264 264 265 267 269 270 270 270 271 270 271 272 273 274 276 277 278 280
245 243 243 247 248 247 247 249 251 252 253 255 257 259 261 263 266 268 269 270 271 270 267 264 264 264 265 264 265 268 269 270 269 269 270 269 270 271 271 273 275 276 276 278
246 246 245 244 246 246 247 250 253 254 255 256 256 258 259 261 263 266 268 267 268 270 269 267 267 266 267 267 266 268 269 270 269 269 269 269 270 270 271 272 272 273 274 275
248 246 244 245 247 247 248 250 252 254 255 256 259 260 260 261 261 264 267 267 267 269 269 269 268 266 267 266 265 266 268 270 270 270 270 270 269 269 271 270 270 270 271 273
248 249 250 248 248 250 252 255 256 256 257 258 259 262 262 262 263 265 266 267 269 270 271 269 268 269 268 268 267 268 269 270 270 270 268 267 267 268 269 268 269 269 270 272
248 250 251 251 251 253 256 258 260 260 259 259 259 261 262 263 264 266 269 270 270 270 269 269 269 269 268 268 268 268 269 270 269 269 267 265 265 266 267 266 268 269 270 271
251 253 255 254 255 256 256 258 260 259 260 259 260 260 261 262 264 266 268 270 270 268 267 268 268 268 269 269 267 269 270 271 270 269 268 267 266 266 266 265 266 268 269 271
252 254 257 258 258 259 257 259 261 261 261 262 262 261 261 262 263 266 268 269 269 269 268 268 267 266 267 268 268 268 269 271 272 270 269 269 268 266 264 264 265 268 268 270
253 254 256 259 262 261 261 263 261 262 262 263 264 266 267 266 264 265 267 270 270 268 266 265 266 265 266 268 269 267 267 270 271 271 270 270 268 268 267 266 266 267 269 270
254 255 257 258 259 261 262 262 260 261 263 264 265 266 266 267 265 264 265 266 267 266 265 265 265 265 265 267 268 268 268 269 270 270 271 270 268 269 268 268 268 269 269 271
255 257 259 258 260 261 261 261 261 262 263 264 264 265 266 267 265 264 264 264 265 265 264 263 264 264 265 266 267 267 269 270 268 268 268 267 267 268 267 267 267 267 268 269
256 256 256 258 260 261 261 262 262 262 263 264 265 266 267 266 265 265 265 265 265 264 264 264 263 264 265 266 267 268 270 270 267 266 267 268 268 268 269 267 265 266 267 268
254 254 256 257 258 259 260 260 260 263 264 263 264 265 265 265 265 265 265 265 266 265 264 264 264 264 265 266 266 267 269 269 268 268 269 270 268 267 270 269 267 267 267 267
255 256 257 258 257 256 259 261 262 264 266 265 266 266 265 265 264 264 265 265 266 266 265 264 263 264 266 267 268 268 268 269 269 269 270 270 270 269 269 269 267 268 268 268
256 256 256 255 255 257 260 262 264 265 265 266 268 267 266 265 264 264 265 266 266 265 265 264 263 263 263 265 267 268 268 270 270 270 270 269 269 269 268 268 266 266 266 266
256 256 255 257 258 259 261 263 264 264 265 266 268 267 265 265 266 264 265 266 266 266 265 264 264 263 263 263 265 267 268 269 269 271 271 270 268 268 268 267 265 265 264 264
259 258 258 258 259 261 264 264 264 266 267 267 265 264 263 264 265 264 265 267 266 265 265 265 265 265 265 264 264 265 267 268 269 269 269 270 269 268 268 267 266 265 265 264
261 262 263 263 259 256 260 262 264 266 266 265 264 264 263 263 264 266 267 266 265 265 266 267 267 267 267 267 267 266 267 267 267 269 269 270 270 269 267 265 265 266 266 265
262 259 259 260 258 259 260 264 267 268 266 264 264 265 264 265 266 265 267 266 265 266 267 268 266 266 267 267 267 267 266 266 267 269 270 270 269 269 268 267 265 266 266 264
266 261 259 261 261 260 263 265 267 266 262 261 263 264 266 269 267 265 266 267 266 266 267 268 267 266 265 264 264 265 266 267 268 269 270 270 270 269 269 268 267 265 264 264
270 269 266 266 267 265 266 266 267 264 261 263 266 269 268 270 269 268 270 271 270 269 269 269 267 266 264 264 264 265 266 267 268 269 269 268 269 270 270 270 268 268 268 268
274 272 271 271 271 272 270 269 269 266 265 266 269 271 272 272 271 272 274 275 274 274 272 270 267 266 265 263 263 264 266 267 268 269 269 269 269 270 271 272 272 271 270 270
278 275 275 273 270 272 272 270 270 268 266 266 268 270 272 272 271 272 273 275 275 275 273 272 271 270 267 263 262 264 266 268 269 268 268 271 271 271 272 274 275 275 274 272
281 278 278 277 274 273 273 272 273 270 266 265 266 269 271 272 272 270 272 274 275 273 272 273 273 272 269 268 267 267 268 269 270 270 270 271 274 275 275 276 277 277 275 272
284 280 279 278 276 276 275 274 273 272 271 271 270 267 267 267 269 270 270 272 274 273 274 273 273 272 271 270 270 269 267 267 268 270 271 272 273 274 273 275 277 276 274 271
Height
5791 5793 5795 5796 5799 5800 5801 5802 5804 5806 5807 5808 5808 5809 5810 5810 5810 5810 5811 5811 5811 5811 5811 5811 5811 5811 5812 5812 5813 5813 5812 5812 5812 5811 5811 5811 5811 5810 5810 5810 5810 5809 5809 5808
5784 5786 5787 5789 5791 5792 5794 5795 5796 5798 5800 5801 5801 5802 5803 5803 5804 5804 5804 5805 5805 5804 5804 5805 5805 5805 5805 5805 5806 5806 5805 5805 5805 5804 5804 5804 5804 5803 5803 5803 5803 5803 5802 5801
5777 5779 5780 5782 5784 5785 5787 5788 5790 5791 5794 5794 5795 5795 5796 5796 5797 5797 5797 5798 5798 5798 5798 5798 5797 5798 5798 5798 5798 5798 5798 5797 5797 5796 5796 5796 5796 5796 5796 5796 5796 5796 5795 5795
5769 5772 5773 5777 5777 5778 5779 5781 5782 5784 5786 5787 5788 5788 5789 5790 5790 5790 5790 5790 5790 5790 5789 5790 5790 5790 5790 5790 5790 5790 5790 5790 5789 5789 5789 5789 5789 5789 5789 5789 5789 5789 5788 5788
5761 5763 5765 5768 5769 5771 5772 5773 5775 5777 5778 5779 5780 5780 5781 5782 5783 5783 5783 5783 5783 5783 5783 5783 5782 5782 5782 5782 5783 5783 5783 5782 5782 5781 5781 5781 5781 5781 5782 5782 5781 5781 5781 5781
5754 5755 5757 5761 5763 5763 5765 5765 5768 5769 5770 5771 5772 5774 5775 5775 5775 5776 5776 5775 5776 5776 5776 5776 5775 5775 5774 5774 5775 5775 5775 5775 5774 5773 5773 5773 5773 5773 5773 5773 5773 5773 5773 5774
5747 5748 5750 5753 5754 5756 5758 5759 5760 5761 5762 5763 5765 5766 5767 5767 5767 5768 5768 5768 5768 5768 5768 5767 5767 5767 5767 5767 5767 5767 5767 5766 5766 5766 5765 5765 5765 5765 5765 5765 5765 5766 5766 5766
5740 5741 5745 5745 5747 5749 5750 5751 5752 5753 5754 5755 5756 5757 5757 5758 5759 5759 5759 5760 5760 5760 5760 5760 5759 5759 5760 5760 5760 5759 5759 5759 5758 5757 5757 5757 5758 5758 5758 5758 5758 5759 5759 5759
5733 5736 5737 5738 5739 5740 5742 5743 5744 5745 5746 5747 5748 5748 5748 5749 5750 5750 5751 5751 5751 5751 5751 5751 5751 5751 5752 5752 5752 5752 5751 5751 5750 5750 5749 5750 5750 5751 5751 5751 5751 5752 5752 5752
5726 5727 5728 5730 5731 5732 5733 5734 5736 5737 5738 5739 5739 5739 5740 5740 5741 5741 5742 5743 5743 5743 5743 5743 5743 5743 5744 5744 5744 5744 5744 5744 5743 5743 5743 5743 5743 5743 5743 5743 5744 5744 5744 5744
5718 5720 5721 5722 5723 5724 5725 5726 5727 5728 5729 5730 5731 5731 5731 5732 5732 5733 5733 5734 5734 5735 5735 5735 5735 5735 5735 5735 5736 5736 5736 5736 5736 5736 5736 5736 5735 5735 5735 5736 5736 5736 5736 5736
5710 5712 5714 5715 5716 5717 5718 5719 5719 5720 5721 5722 5722 5723 5723 5724 5724 5724 5725 5725 5726 5726 5726 5727 5727 5727 5727 5727 5728 5728 5728 5728 5728 5728 5728 5728 5728 5728 5727 5727 5728 5728 5728 5728
5702 5703 5705 5706 5708 5708 5709 5710 5711 5712 5713 5714 5714 5715 5715 5715 5715 5716 5716 5717 5717 5718 5718 5718 5718 5718 5719 5719 5720 5720 5720 5720 5721 5721 5721 5720 5720 5720 5719 5719 5719 5720 5720 5720
5694 5695 5696 5698 5699 5700 5701 5702 5703 5704 5704 5705 5706 5706 5706 5706 5707 5707 5708 5708 5709 5709 5709 5710 5710 5710 5711 5711 5712 5712 5712 5712 5713 5713 5713 5713 5712 5712 5712 5711 5711 5711 5711 5711
5686 5687 5689 5690 5691 5692 5693 5694 5695 5695 5696 5696 5697 5697 5698 5698 5699 5699 5699 5700 5700 5700 5701 5701 5701 5702 5702 5703 5703 5704 5704 5704 5704 5704 5704 5704 5704 5704 5704 5703 5703 5703 5703 5703
5678 5680 5681 5682 5683 5684 5685 5686 5686 5687 5687 5688 5688 5688 5689 5689 5690 5691 5691 5691 5691 5692 5692 5692 5693 5693 5694 5694 5694 5695 5695 5695 5696 5696 5696 5696 5695 5695 5695 5695 5695 5695 5695 5695
5671 5672 5673 5674 5675 5676 5677 5678 5678 5679 5679 5680 5680 5680 5680 5681 5681 5682 5682 5683 5683 5683 5683 5683 5684 5684 5685 5686 5686 5686 5686 5687 5687 5687 5687 5687 5687 5687 5687 5687 5687 5687 5687 5686
5663 5664 5665 5666 5667 5669 5669 5670 5671 5671 5672 5672 5672 5673 5673 5673 5674 5674 5674 5674 5674 5674 5674 5675 5675 5676 5676 5677 5678 5678 5678 5678 5678 5678 5679 5679 5679 5679 5679 5679 5679 5678 5679 5679
5657 5658 5658 5659 5660 5661 5662 5662 5663 5664 5664 5665 5665 5665 5666 5666 5666 5666 5666 5666 5666 5666 5667 5667 5667 5667 5668 5668 5669 5669 5670 5670 5670 5670 5670 5670 5670 5671 5671 5671 5671 5671 5671 5671
5650 5651 5652 5653 5653 5654 5655 5655 5656 5656 5657 5657 5658 5658 5658 5659 5659 5659 5659 5659 5659 5659 5659 5660 5660 5660 5660 5660 5661 5661 5661 5662 5662 5662 5662 5662 5662 5662 5663 5663 5663 5663 5663 5663
5644 5645 5646 5647 5647 5648 5648 5649 5649 5650 5650 5650 5651 5651 5651 5652 5652 5652 5652 5652 5652 5652 5652 5652 5652 5653 5653 5653 5653 5653 5654 5654 5654 5655 5655 5655 5655 5654 5654 5654 5655 5655 5655 5655
5638 5639 5640 5640 5641 5642 5642 5642 5643 5643 5643 5644 5644 5644 5645 5645 5645 5645 5645 5645 5645 5644 5645 5645 5645 5645 5645 5646 5646 5646 5647 5647 5647 5647 5647 5647 5647 5647 5647 5646 5646 5646 5646 5647
5633 5633 5634 5634 5635 5635 5635 5636 5636 5637 5637 5638 5638 5638 5638 5638 5638 5638 5638 5638 5637 5637 5637 5637 5637 5638 5638 5639 5639 5639 5639 5640 5640 5639 5639 5639 5639 5639 5639 5638 5638 5638 5638 5638
5629 5629 5629 5629 5629 5629 5630 5630 5631 5631 5631 5632 5632 5632 5632 5632 5632 5632 5631 5631 5631 5630 5630 5630 5630 5630 5631 5631 5632 5632 5632 5632 5632 5632 5632 5632 5632 5631 5631 5630 5630 5629 5629 5629
5624 5624 5624 5623 5624 5624 5624 5625 5625 5625 5625 5625 5626 5626 5626 5626 5626 5626 5625 5625 5624 5624 5624 5624 5624 5624 5624 5625 5625 5625 5625 5625 5625 5625 5625 5624 5624 5624 5623 5623 5622 5621 5621 5620
5620 5619 5619 5619 5619 5619 5619 5619 5619 5619 5619 5619 5620 5620 5620 5620 5620 5620 5619 5619 5619 5618 5618 5618 5617 5618 5618 5618 5618 5618 5618 5618 5618 5618 5617 5617 5617 5616 5616 5615 5614 5614 5613 5613
5615 5615 5614 5614 5614 5614 5614 5614 5614 5614 5613 5614 5614 5614 5614 5615 5615 5614 5614 5613 5613 5613 5613 5612 5612 5612 5612 5612 5612 5612 5612 5612 5611 5611 5610 5610 5610 5609 5608 5608 5607 5606 5606 5606